Estación de San Diego

Ultimos registro cada 15 minutos 27
Estación Fecha / Hora Temperatura Humedad Lluvia Velocidad Dirección Radiación Presion
27 San Diego 05-05-2026 06:30 8,2 96 0 0 288 0 1013,8
26 San Diego 05-05-2026 06:15 8 95 0 0 326 0 1014,1
25 San Diego 05-05-2026 06:00 7,8 95 0 0 326 0 1014
24 San Diego 05-05-2026 05:45 7,6 95 0 0 326 0 1013,7
23 San Diego 05-05-2026 05:30 7,5 95 0 0 326 0 1013,3
22 San Diego 05-05-2026 05:15 7,7 94 0 0 326 0 1013,1
21 San Diego 05-05-2026 05:00 7,9 95 0 0 289 0 1012,9
20 San Diego 05-05-2026 04:45 7,4 94 0 0 291 0 1012,7
19 San Diego 05-05-2026 04:30 7,6 94 0 0 291 0 1012,8
18 San Diego 05-05-2026 04:15 7,5 94 0 0 291 0 1012,9
17 San Diego 05-05-2026 04:00 7,5 93 0 0 291 0 1012,9
16 San Diego 05-05-2026 03:45 7,8 94 0 0 291 0 1013
15 San Diego 05-05-2026 03:30 8 94 0 0 291 0 1013
14 San Diego 05-05-2026 03:15 8,1 94 0 0 291 0 1013
13 San Diego 05-05-2026 03:00 8,2 93 0 0 353 0 1013,2
12 San Diego 05-05-2026 02:45 8,6 94 0 0 18 0 1013,2
11 San Diego 05-05-2026 02:30 8,7 94 0 0 18 0 1013,4
10 San Diego 05-05-2026 02:15 8,9 94 0 0 18 0 1013,4
9 San Diego 05-05-2026 02:00 8,9 94 0 0 18 0 1013,4
8 San Diego 05-05-2026 01:45 8,9 94 0 0 18 0 1013,6
7 San Diego 05-05-2026 01:30 8,8 92 0 0 55 0 1013,9
6 San Diego 05-05-2026 01:15 9,5 93 0 0 55 0 1013,9
5 San Diego 05-05-2026 01:00 9,8 93 0 0 55 0 1013,8
4 San Diego 05-05-2026 00:45 9,9 92 0 0 55 0 1013,9
3 San Diego 05-05-2026 00:30 10,4 93 0 0 55 0 1013,9
2 San Diego 05-05-2026 00:15 10,6 94 0 0 55 0 1014,1
1 San Diego 05-05-2026 00:00 10,2 94 0 0 55 0 1014,3